Regional Weather Roundup
Issued by NWS

Home | Current Version | Previous Version | Graphics & Text | Print | Product List | Glossary Off
Versions: 1 2 3 4 5 6 7 8 9 10 11 12 13 14 15 16 17 18 19 20 21 22 23 24 25 26 27 28 29 30 31 32 33 34 35 36 37 38 39 40 41 42 43 44 45 46 47 48 49 50

000
ASUS43 KMPX 250410
RWRMN
WEATHER ROUNDUP FOR MINNESOTA
NATIONAL WEATHER SERVICE TWIN CITIES/CHANHASSEN MN
1100 PM CDT FRI OCT 24 2014


NOTE: "FAIR" INDICATES FEW OR NO CLOUDS BELOW 12,000 FEET WITH NO
SIGNIFICANT WEATHER AND/OR OBSTRUCTIONS TO VISIBILITY. N/A MEANS
CURRENT SKY AND/OR WEATHER CONDITIONS ARE NOT AVAILABLE.

MNZ060>063-068>070-250500-
   Twin Cities Metro

CITY           SKY/WX    TMP DP  RH WIND       PRES   REMARKS
TWIN CITIES    PTCLDY    58  50  75 SW7       29.86S
ST PAUL        FOG       50  49  96 CALM      29.87S VSB 1/4
CRYSTAL        CLEAR     59  47  64 W8        29.86R
BLAINE         CLEAR     61  48  63 W9        29.86R
LAKEVILLE      CLEAR     55  48  76 SW5       29.88R
EDEN PRAIRIE   CLEAR     57  50  77 SW8       29.86R
SOUTH ST PAUL  CLEAR     49  48  95 SW3       29.86S FOG
LAKE ELMO      FAIR      50  50 100 S5        29.86S FOG
$$
MNZ001>005-007-008-013>017-022>024-027-028-250500-
   Northwest Minnesota

CITY           SKY/WX    TMP DP  RH WIND       PRES   REMARKS
BEMIDJI        PTCLDY    56  33  42 W15       29.85R
HALLOCK        CLEAR     50  34  53 W10       29.85R
ROSEAU         CLEAR     55  36  47 W15G24    29.79R
WARROAD        CLEAR     50  37  62 W13G20    29.78R
THIEF RVR FALL CLEAR     54  34  47 W14       29.87R
CROOKSTON      CLEAR     48  36  61 NW13      29.89R
FOSSTON        PTCLDY    52  34  50 W9        29.89R
DETROIT LAKES  MOCLDY    55  32  41 NW15      29.92R
MOORHEAD       PTCLDY    57  27  30 W8        29.93R
PARK RAPIDS    CLEAR     57  31  37 NW16      29.87R
MAHNOMEN       FAIR      52  32  46 W15       29.90R
$$
MNZ006-009>011-018-025>026-250500-
   North Central Minnesota

CITY           SKY/WX    TMP DP  RH WIND       PRES   REMARKS
BAUDETTE       CLEAR     54  35  48 W9        29.75R
FLAG ISLAND    CLEAR     55  34  44 W22G30    29.72R
INTL FALLS     CLEAR     53  35  50 W8        29.74R
WASKISH        PTCLDY    54  43  66 W10       29.81R
BIG FORK       PTCLDY    57  34  41 W7        29.80R
LONGVILLE      PTCLDY    59  30  33 W13G22    29.84R
GRAND RAPIDS   MOCLDY    59  34  38 W13G18    29.80S
CRANE LAKE     CLEAR     57  32  38 W3        29.74R
ORR            CLEAR     57  30  35 W13G21    29.73R
COOK           CLEAR     57  34  41 W14G24    29.76R
WALKER         FAIR      57  32  37 W13G22    29.85R
$$
MNZ012-019>021-037-250500-
   Northeast Minnesota

CITY           SKY/WX    TMP DP  RH WIND       PRES   REMARKS
DULUTH         MOCLDY    59  41  51 W15       29.76R
ELY            CLEAR     57  34  41 W15       29.71S
HIBBING        PTCLDY    61  33  35 W12G22    29.77R
EVELETH        PTCLDY    59  34  38 W13G21    29.77R
DULUTH HARBOR  MOCLDY    59  50  72 SW12      29.76R
TWO HARBORS    MOCLDY    61  34  36 W8        29.72R
SILVER BAY     PTCLDY    54  46  76 CALM      29.70R
GRAND MARAIS     N/A     47  45  93 W6        29.65F
G MARAIS ARPRT PTCLDY    52  41  66 SW5       29.66F
$$
MNZ029>031-032-039>041-046>048-054>057-064-250500-
   West Central Minnesota

CITY           SKY/WX    TMP DP  RH WIND       PRES   REMARKS
FERGUS FALLS   CLOUDY    57  30  35 W9        29.94R
WHEATON        PTCLDY    55  37  50 NW8       29.98R
MORRIS         PTCLDY    59  39  47 NW15      29.93R
ALEXANDRIA     MOCLDY    61  34  36 NW17G23   29.93R
ELBOW LAKE     FAIR      58  37  44 W9        29.93R
WADENA         MOCLDY    57  34  41 W7        29.89R
GLENWOOD       PTCLDY    59  36  41 NW14      29.93R
APPLETON       PTCLDY    57  39  51 NW9       29.94R
BENSON         CLEAR     55  41  58 N10       29.93R
ORTONVILLE     MOCLDY    61  39  44 NW10      29.95R
MADISON        PTCLDY    61  43  51 NW8       29.95R
WILLMAR        FAIR      57  43  58 NW7       29.94R
$$
MNZ033>034-036-042>043-049>051-058-059-250500-
   Central Minnesota

CITY           SKY/WX    TMP DP  RH WIND       PRES   REMARKS
ST CLOUD       CLEAR     62  43  49 NW12      29.88R
SAUK CENTRE    CLOUDY    56  41  56 W7        29.91R
PAYNESVILLE    CLEAR     55  41  59 W10       29.92R
AITKIN         PTCLDY    61  39  44 W7        29.82R
PINE RIVER     CLEAR     59  36  41 W8        29.89R
BRAINERD       CLEAR     58  39  49 W9        29.86R
STAPLES        PTCLDY    57  32  38 W12       29.88R
LONG PRAIRIE   FAIR      59  36  41 W8        29.91R
LITTLE FALLS   PTCLDY    59  37  44 W5        29.88R
LITCHFIELD     CLEAR     63  43  48 NW10      29.91R
BUFFALO        CLEAR     57  43  60 SW5       29.89R
MAPLE LAKE     CLEAR     61  45  55 W6        29.89R
$$
MNZ037-044-045-052-053-250500-
   East Central Minnesota

CITY           SKY/WX    TMP DP  RH WIND       PRES   REMARKS
PRINCETON      CLEAR     59  45  58 W8        29.86R
MORA           PTCLDY    54  45  71 W6        29.85R
CAMBRIDGE      PTCLDY    61  46  59 W7        29.83R
RUSH CITY      PTCLDY    53  48  84 W5        29.84R
MOOSE LAKE     MOCLDY    52  43  71 W6        29.79S
HINCKLEY       FAIR      52  48  87 CALM      29.82R
CLOQUET        MOCLDY    57  41  54 W10G17    29.79R
MCGREGOR       PTCLDY    57  41  54 W6        29.82R
$$
MNZ071>073-080-081-089-090-097-098-250500-
   Southwest Minnesota

CITY           SKY/WX    TMP DP  RH WIND       PRES   REMARKS
MONTEVIDEO     CLEAR     59  43  55 NW6       29.95R
GRANITE FALLS  CLEAR     58  43  57 W10       29.96R
CANBY          PTCLDY    59  41  51 W9        29.98R
MARSHALL       CLEAR     55  37  50 NW15      29.95R
REDWOOD FALLS  CLEAR     58  41  53 NW10      29.93R
OLIVIA         CLEAR     57  41  54 NW7       29.92R
PIPESTONE      CLEAR     52  41  66 NW7       29.99R
WINDOM         FAIR      50  39  66 W5        29.96R
WORTHINGTON    CLEAR     54  39  58 W9        29.98R
JACKSON        PTCLDY    54  39  58 W5        29.96R
TRACY          CLEAR     63  40  43 W8        29.96R
SLAYTON        CLEAR     57  40  52 W9        29.98R
$$
MNZ065>067-074>077-082>085-091>093-250500-
   South Central Minnesota

CITY           SKY/WX    TMP DP  RH WIND       PRES   REMARKS
MANKATO        CLEAR     55  43  62 W7        29.91R
NEW ULM        CLEAR     52  43  71 W7        29.92R
ST JAMES       CLEAR     54  41  62 SW6       29.94R
FAIRMONT       CLEAR     54   7  15 W7        29.93S
GLENCOE        CLEAR     60  46  58 W10       29.90R
FARIBAULT      CLEAR     46  45  93 CALM      29.90R FOG
OWATONNA       CLEAR     54  48  82 S3        29.90S
WASECA         CLEAR     45  41  87 SW5       29.92S
ALBERT LEA     CLEAR     48  48 100 SW3       29.92S FOG
$$
MNZ078>079-086>088-094>096-250500-
   Southeast Minnesota

CITY           SKY/WX    TMP DP  RH WIND       PRES   REMARKS
ROCHESTER      FOG       51  50  96 S6        29.92R VSB 1/4
RED WING       FOG       46  46 100 CALM      29.86S VSB 1/4
STANTON        CLEAR     51  47  86 S6        29.86S
DODGE CENTER   CLEAR     52  50  93 SW8       29.90S FOG
WINONA         CLOUDY    59  55  88 SW3       29.89S FOG
AUSTIN         FOG       46  46 100 S3        29.92R VSB<1/4
PRESTON        FOG       56  55  97 SW5       29.92R VSB 1/2
$$
ABBREVIATIONS USED IN REMARKS
   TC - TEMPERATURES IN CELSIUS
  WCI - WIND CHILL INDEX
   HX - HEAT INDEX
  VSB - VISIBILITY
$$



USA.gov is the U.S. government's official web portal to all federal, state and local government web resources and services.